Printer-friendly version

IAU Minor Planet Center

Minor Planet Center

MPEC 2004-F85 : 2004 FF29

The following Minor Planet Electronic Circular may be linked-to from your own Web pages, but must not otherwise be redistributed electronically.


Read MPEC 2004-F84 Read MPEC 2004-F86


M.P.E.C. 2004-F85                                Issued 2004 Mar. 30, 13:12 UT

     The Minor Planet Electronic Circulars contain information on unusual
         minor planets and routine data on comets.  They are published
   on behalf of Commission 20 of the International Astronomical Union by the
          Minor Planet Center, Smithsonian Astrophysical Observatory,
                          Cambridge, MA 02138, U.S.A.

         Supported in part by the Steven and Michele Kirsch Foundation
             Prepared using the Tamkin Foundation Computer Network

                              MPC@CFA.HARVARD.EDU
          URL http://cfa-www.harvard.edu/iau/mpc.html  ISSN 1523-6714

                                   2004 FF29

Observations:
     K04F29F* C2004 03 28.99404 15 53 51.86 +20 01 14.3          16.5 R EF085106
     K04F29F  C2004 03 28.99986 15 53 49.36 +20 01 00.6          16.3 R EF085106
     K04F29F  C2004 03 29.00568 15 53 46.84 +20 00 47.1          16.4 R EF085106
     K04F29F  C2004 03 29.91855 15 47 31.40 +19 24 37.8          16.1 R EF085106
     K04F29F  C2004 03 29.91890 15 47 31.22 +19 24 32.6          16.2 R EF085J95
     K04F29F  C2004 03 29.92197 15 47 29.961+19 24 27.33         16.6 V EF085611
     K04F29F  C2004 03 29.92240 15 47 29.82 +19 24 29.0          16.3 R EF085106
     K04F29F  C2004 03 29.92261 15 47 29.69 +19 24 23.4          16.4 R EF085J95
     K04F29F  C2004 03 29.92278 15 47 29.638+19 24 25.74         16.6 V EF085611
     K04F29F  C2004 03 29.92360 15 47 29.300+19 24 23.76         16.6 V EF085611
     K04F29F  C2004 03 29.92533 15 47 28.64 +19 24 17.0          16.5 R EF085J95
     K04F29F  C2004 03 29.92751 15 47 27.70 +19 24 17.0          16.2 R EF085106
     K04F29F  C2004 03 29.92990 15 47 27.10 +19 24 13.4          16.9 R EF085620
     K04F29F  C2004 03 29.93110 15 47 26.60 +19 24 10.8          16.8 R EF085620
     K04F29F  C2004 03 29.93228 15 47 26.13 +19 24 07.8          16.4 R EF085620
     K04F29F  C2004 03 29.93347 15 47 25.68 +19 24 05.3          16.7 R EF085620
     K04F29F  C2004 03 29.93465 15 47 25.16 +19 24 02.2          16.6 R EF085620
     K04F29F  C2004 03 29.93583 15 47 24.69 +19 23 59.3          16.8 R EF085620
     K04F29F  C2004 03 29.93701 15 47 24.21 +19 23 57.0          16.9 R EF085620
     K04F29F  C2004 03 29.93939 15 47 23.23 +19 23 51.4          16.6 R EF085620
     K04F29F  C2004 03 29.93997 15 47 22.56 +19 23 47.4                 EF085246
     K04F29F  C2004 03 29.94039 15 47 22.39 +19 23 46.4                 EF085246
     K04F29F  C2004 03 29.94087 15 47 22.21 +19 23 45.5                 EF085246
     K04F29F  C2004 03 29.94137 15 47 22.01 +19 23 44.3                 EF085246
     K04F29F  C2004 03 29.94175 15 47 22.26 +19 23 45.8          17.1 R EF085620
     K04F29F  C2004 03 29.94294 15 47 21.78 +19 23 43.3          17.0 R EF085620
     K04F29F  C2004 03 30.01102 15 46 53.27 +19 21 03.2          16.1 R EF085106
     K04F29F  C2004 03 30.01556 15 46 51.38 +19 20 52.7          16.1 R EF085106
     K04F29F  C2004 03 30.01742 15 46 50.62 +19 20 48.5          16.1 R EF085106
     K04F29F  C2004 03 30.02196 15 46 48.73 +19 20 37.9          16.0 R EF085106
     K04F29F  C2004 03 30.02383 15 46 47.98 +19 20 33.5          16.1 R EF085106
     K04F29F  C2004 03 30.02837 15 46 46.07 +19 20 22.8          16.0 R EF085106
     K04F29F  C2004 03 30.04322 15 46 39.91 +19 19 47.9          16.0 R EF085106
     K04F29F  C2004 03 30.04671 15 46 38.47 +19 19 39.7          16.0 R EF085106
     K04F29F  C2004 03 30.05022 15 46 37.00 +19 19 31.6          16.1 R EF085106
     K04F29F  C2004 03 30.05140 15 46 36.41 +19 19 27.4                 EF085118
     K04F29F  C2004 03 30.05475 15 46 34.99 +19 19 19.7          16.9 V EF085118
     K04F29F  C2004 03 30.05586 15 46 34.54 +19 19 17.0                 EF085118
     K04F29F  C2004 03 30.05809 15 46 33.59 +19 19 11.8                 EF085118
     K04F29F  C2004 03 30.10655 15 46 14.16 +19 17 15.5          17.1 R EF085J95
     K04F29F  C2004 03 30.11011 15 46 12.67 +19 17 07.1          17.0 R EF085J95
     K04F29F  C2004 03 30.11360 15 46 11.25 +19 16 59.1          17.0 R EF085J95
     K04F29F  C2004 03 30.14617 15 45 59.87 +19 16 30.8          16.2 R EF085844
     K04F29F  C2004 03 30.14734 15 45 59.35 +19 16 28.0          16.3 R EF085844
     K04F29F  C2004 03 30.15447 15 45 56.36 +19 16 14.5          15.6 R EF085844
     K04F29F  C2004 03 30.26071 15 45 14.19 +19 11 18.4          16.4 R EF085H06
     K04F29F  C2004 03 30.26195 15 45 13.70 +19 11 15.9          16.1 R EF085H06
     K04F29F  C2004 03 30.26244 15 45 13.50 +19 11 14.9          16.2 R EF085H06
     K04F29F  C2004 03 30.26292 15 45 13.28 +19 11 13.6          16.2 R EF085H06
     K04F29F  C2004 03 30.26341 15 45 13.07 +19 11 12.9          16.1 R EF085H06
     K04F29F  C2004 03 30.26389 15 45 12.87 +19 11 11.5          16.0 R EF085H06
     K04F29F  C2004 03 30.26438 15 45 12.69 +19 11 10.3          16.2 R EF085H06
     K04F29F  C2004 03 30.26487 15 45 12.48 +19 11 09.1          16.3 R EF085H06
     K04F29F  C2004 03 30.26536 15 45 12.28 +19 11 08.1          16.2 R EF085H06
     K04F29F  C2004 03 30.26584 15 45 12.09 +19 11 06.7          16.3 R EF085H06
     K04F29F  C2004 03 30.35533 15 44 35.62 +19 07 40.3          16.7 R EF085854
     K04F29F  C2004 03 30.36201 15 44 32.93 +19 07 25.1          17.3 R EF085854
     K04F29F 5C2004 03 30.38924 15 44 21.95 +19 06 19.6          17.0 R EF085673
     K04F29F 5C2004 03 30.39051 15 44 21.41 +19 06 16.6                 EF085673
     K04F29F 5C2004 03 30.39282 15 44 20.48 +19 06 11.4                 EF085673
     K04F29F 5C2004 03 30.39769 15 44 18.49 +19 05 59.9                 EF085673
     K04F29F 5C2004 03 30.40972 15 44 13.58 +19 05 32.2                 EF085673

Observer details:
106 Crni Vrh.  Observers H. Mikuz, S. Maticic.  0.60-m f/3.3 Deltagraph + CCD..
118 Modra.  Observers J. Vilagi, L. Kornos.  0.6-m f/5.5 reflector + CCD.
246 Klet Observatory-KLENOT.  Observer M. Tichy.  1.06-m KLENOT Telescope
    + CCD.
611 Starkenburg.  Observer F. Hormuth.  0.45-m f/4.4 reflector + CCD.
620 Observatorio Astronomico de Mallorca.  Observers S. Sanchez, R. Stoss,
    J. Nomen.  0.30-m f/9 Schmidt-Cassegrain + CCD.
673 Table Mountain Observatory, Wrightwood.  Observer J. Young.  0.6-m
    reflector + CCD.
844 Los Molinos.  Observer R. Salvo.  0.35-m f/6.4 reflector + CCD.
854 Sabino Canyon Observatory, Tucson.  Observer J. E. McGaha.  0.356-m f/10.0
    Schmidt-Cassegrain + CCD.
H06 New Mexico Skies Observatory.  Observer R. Hutsebaut.
J95 Great Shefford.  Observer P. Birtwhistle.  0.30-m f/6.3 Schmidt-Cassegrain
    + CCD.

Orbital elements:
2004 FF29
Epoch 2004 Mar. 16.0 TT = JDT 2453080.5                 MPC
M  16.70617              (2000.0)            P               Q
n   0.36335353     Peri.   39.97055     -0.31466112     -0.93965221
a   1.9449859      Node    68.74751     +0.82989769     -0.34102677
e   0.6219857      Incl.    8.28646     +0.46071488     -0.02746751
P   2.71           H   18.1           G   0.15
From 60 observations 2004 Mar. 28-30.

Ephemeris:
2004 FF29                a,e,i = 1.94, 0.62, 8                   q = 0.7352
Date    TT    R. A. (2000) Decl.     Delta      r     Elong.  Phase     V
2004 03 26    16 16.05   +22 00.8    0.199    1.104   117.7    53.2    16.8
2004 04 05    15 11.14   +15 34.5    0.248    1.202   140.4    32.1    16.8
2004 04 15    14 28.24   +10 11.6    0.317    1.299   155.9    18.4    17.1
2004 04 25    14 00.86   +05 58.9    0.406    1.396   160.6    13.8    17.7
2004 05 05    13 44.61   +02 39.6    0.513    1.490   155.2    16.5    18.4
2004 05 15    13 36.22   -00 02.8    0.636    1.581   146.7    20.6    19.1
2004 05 25    13 33.46   -02 21.0    0.773    1.670   138.0    24.0    19.8
2004 06 04    13 34.82   -04 23.6    0.924    1.755   129.7    26.4    20.3
2004 06 14    13 39.19   -06 15.1    1.085    1.837   122.0    28.0    20.8
2004 06 24    13 45.84   -07 59.1    1.256    1.917   114.6    28.8    21.3
2004 07 04    13 54.24   -09 37.4    1.434    1.993   107.6    29.1    21.7
2004 07 14    14 04.00   -11 10.9    1.617    2.066   100.9    28.9    22.0

Timothy B. Spahr             (C) Copyright 2004 MPC           M.P.E.C. 2004-F85

Read MPEC 2004-F84 Read MPEC 2004-F86


Our Web policy. Index to the CBAT/MPC/ICQ pages.


Valid HTML 4.01!